This demonstration page uses our WeatherBlox Daily Observations layout. Learn more.

Left ArrowRight Arrow

Hourly Observations for July 31, 2018

Temp ( °F °C ) Dew Point ( °F °C ) Humidity (%) Winds ( mph kmh ) Pressure ( in mb ) Visibility ( mi km ) Precip ( " mm )
12:15 am 00:15 Clear 56 13.4 54 12.4 94 94 N 3 6 30.21 1023 10 16 N/A
12:35 am 00:35 Clear 55 13 54 12.1 94 94 WNW 3 6 30.21 1023 10 16 N/A
12:55 am 00:55 Clear 55 12.7 53 11.8 94 94 N N/A 30.21 1023 10 16 N/A
1:15 am 01:15 Clear 55 12.7 53 11.8 94 94 N N/A 30.21 1023 10 16 N/A
1:35 am 01:35 Clear 55 12.5 53 11.6 94 94 W 3 6 30.21 1023 10 16 N/A
1:55 am 01:55 Clear 55 12.6 53 11.9 96 96 N N/A 30.21 1023 10 16 N/A
2:15 am 02:15 Clear 54 12.3 53 11.5 95 95 WNW 5 7 30.21 1023 10 16 N/A
2:35 am 02:35 Clear 54 12.3 53 11.5 95 95 WNW 7 11 30.21 1023 7 11 N/A
2:55 am 02:55 Clear 54 12.2 53 11.5 96 96 WNW 3 6 30.21 1023 7 11 N/A
3:15 am 03:15 Clear 54 12.3 53 11.5 95 95 NW 3 6 30.21 1023 7 11 N/A
3:35 am 03:35 Clear 53 11.7 52 11 96 96 W 3 6 30.18 1022 7 11 N/A
3:55 am 03:55 Clear 53 11.5 51 10.6 94 94 WNW 3 6 30.21 1023 7 11 N/A
4:15 am 04:15 Clear 53 11.5 51 10.6 94 94 N N/A 30.21 1023 7 11 N/A
4:35 am 04:35 Clear 53 11.4 51 10.5 94 94 WNW 6 9 30.24 1024 10 16 N/A
4:55 am 04:55 Clear 53 11.5 51 10.7 95 95 WNW 6 9 30.24 1024 10 16 N/A
5:15 am 05:15 Clear 53 11.4 51 10.5 94 94 WNW 5 7 30.21 1023 7 11 N/A
5:35 am 05:35 Clear 52 11.3 51 10.5 95 95 WNW 7 11 30.21 1023 7 11 N/A
5:55 am 05:55 Clear 53 11.5 51 10.7 95 95 WNW 6 9 30.21 1023 7 11 N/A
6:15 am 06:15 Clear 53 11.7 52 11 96 96 WNW 5 7 30.24 1024 7 11 N/A
6:35 am 06:35 Sunny with Mist and Fog 53 11.5 51 10.7 95 95 WNW 5 7 30.24 1024 5 8 N/A
6:55 am 06:55 Sunny with Mist and Fog 53 11.5 51 10.7 95 95 N N/A 30.24 1024 5 8 0.01 0.25
7:15 am 07:15 Sunny with Mist and Fog 53 11.7 52 11 96 96 WNW 3 6 30.24 1024 5 8 N/A
7:35 am 07:35 Sunny 54 12.3 53 11.5 95 95 WNW 3 6 30.21 1023 7 11 N/A
7:55 am 07:55 Sunny 55 13 54 12 94 94 NW 5 7 30.18 1022 7 11 N/A
8:15 am 08:15 Sunny 57 13.9 55 12.7 93 93 WNW 3 6 30.18 1022 10 16 N/A
8:35 am 08:35 Sunny 58 14.7 56 13.2 91 91 WNW 7 11 30.18 1022 10 16 N/A
8:55 am 08:55 Sunny 60 15.7 56 13.6 87 87 NW 8 13 30.15 1021 10 16 N/A
9:15 am 09:15 Sunny 62 16.5 56 13.6 83 83 WNW 7 11 30.15 1021 10 16 N/A
9:35 am 09:35 Sunny 63 17.3 57 13.9 81 81 WNW 5 7 30.15 1021 10 16 N/A
9:55 am 09:55 Sunny 65 18.5 57 14.1 76 76 W 6 9 30.12 1020 10 16 N/A
10:15 am 10:15 Sunny 67 19.4 58 14.2 72 72 WNW 7 11 30.12 1020 10 16 N/A
10:35 am 10:35 Sunny 68 20.2 57 14 68 68 WNW 6 9 30.12 1020 10 16 N/A
10:55 am 10:55 Sunny 70 21 57 13.9 64 64 NW 3 6 30.12 1020 10 16 N/A
11:15 am 11:15 Sunny 71 21.5 56 13.3 60 60 WNW 3 6 30.12 1020 10 16 N/A
11:35 am 11:35 Sunny 72 22.1 56 13.2 57 57 NW 5 7 30.09 1019 10 16 N/A
11:55 am 11:55 Sunny 73 22.7 55 12.6 53 53 N N/A 30.09 1019 10 16 N/A
12:15 pm 12:15 Hazy 74 23.2 54 12 49 49 N N/A 30.09 1019 4 6 N/A
12:35 pm 12:35 Sunny 74 23.5 53 11.4 47 47 N N/A 30.06 1018 10 16 N/A
12:55 pm 12:55 Sunny 76 24.3 53 11.7 45 45 W 5 7 30.06 1018 10 16 N/A
1:15 pm 13:15 Sunny 76 24.6 51 10.8 42 42 N N/A 30.06 1018 10 16 N/A
1:35 pm 13:35 Sunny 76 24.6 51 10.4 41 41 NW 3 6 30.06 1018 10 16 N/A
1:55 pm 13:55 Sunny 76 24.6 50 10.2 40 40 N N/A 30.06 1018 10 16 N/A
2:15 pm 14:15 Sunny 77 25.1 53 11.9 44 44 W 3 6 30.03 1017 10 16 N/A
2:35 pm 14:35 Sunny 78 25.6 54 12 43 43 N N/A 30.03 1017 10 16 N/A
2:55 pm 14:55 Sunny 78 25.7 50 10.2 38 38 N N/A 30.00 1016 10 16 N/A
3:15 pm 15:15 Sunny 79 26.2 52 11.1 39 39 N N/A 30.00 1016 10 16 N/A
3:35 pm 15:35 Sunny 80 26.5 52 11.1 38 38 SSE 6 9 30.00 1016 10 16 N/A
3:55 pm 15:55 Sunny 80 26.8 53 11.8 39 39 SW 5 7 30.00 1016 10 16 N/A
4:15 pm 16:15 Sunny 80 26.8 51 10.8 37 37 SW 5 7 30.00 1016 10 16 N/A
4:35 pm 16:35 Sunny 81 27 51 10.8 36 36 WSW 5 7 30.00 1016 10 16 N/A
4:55 pm 16:55 Sunny 81 27.2 51 10.7 36 36 S 7 11 29.97 1015 7 11 N/A
5:15 pm 17:15 Sunny 81 27.2 52 11 36 36 SSE 6 9 29.97 1015 10 16 N/A
5:35 pm 17:35 Sunny 81 27.1 51 10.7 36 36 N N/A 29.97 1015 10 16 N/A
5:55 pm 17:55 Sunny 81 27.2 51 10.6 35 35 SSE 3 6 29.97 1015 10 16 N/A
6:15 pm 18:15 Sunny 81 27.2 51 10.5 35 35 S 5 7 29.97 1015 10 16 N/A
6:35 pm 18:35 Sunny 81 27 52 10.9 37 37 S 6 9 29.97 1015 10 16 N/A
7:15 pm 19:15 Sunny 79 26.2 55 13 44 44 S 7 11 29.94 1014 10 16 N/A
7:35 pm 19:35 Sunny 78 25.8 56 13.6 47 47 SSE 6 9 29.97 1015 10 16 N/A
7:55 pm 19:55 Sunny 77 25 57 13.9 50 50 SSE 7 11 29.97 1015 10 16 N/A
8:15 pm 20:15 Sunny 75 23.8 58 14.6 56 56 SSE 7 11 29.97 1015 10 16 N/A
8:35 pm 20:35 Sunny 73 22.6 58 14.5 60 60 SSE 7 11 29.97 1015 10 16 N/A
8:55 pm 20:55 Sunny 70 21.2 59 14.9 67 67 SSE 6 9 29.97 1015 10 16 N/A
9:15 pm 21:15 Clear 68 19.8 60 15.4 76 76 SSE 7 11 30.00 1016 10 16 N/A
9:35 pm 21:35 Clear 66 19.1 60 15.5 80 80 S 5 7 30.00 1016 10 16 N/A
9:55 pm 21:55 Clear 66 18.7 60 15.6 82 82 S 5 7 30.00 1016 10 16 N/A
10:15 pm 22:15 Clear 65 18.5 60 15.3 82 82 SSE 5 7 30.00 1016 10 16 N/A
10:35 pm 22:35 Clear 65 18.2 58 14.6 80 80 SSE 5 7 30.00 1016 10 16 N/A
10:55 pm 22:55 Clear 64 17.6 58 14.4 82 82 S 3 6 30.03 1017 10 16 N/A
11:15 pm 23:15 Clear 63 17.4 57 14 81 81 S 3 6 30.03 1017 10 16 N/A
11:35 pm 23:35 Clear 63 17.3 57 13.8 80 80 N N/A 30.00 1016 10 16 N/A
11:55 pm 23:55 Clear 64 17.5 56 13.5 78 78 S 3 6 30.00 1016 10 16 N/A

Powered by AerisWeather